Year,Month,Day,Hour,Minute,Value (Times are PST for temperature in C)
2016,07,21,00,00,17.80
2016,07,21,00,01,17.80
2016,07,21,00,02,17.80
2016,07,21,00,03,17.80
2016,07,21,00,04,17.80
2016,07,21,00,05,17.80
2016,07,21,00,06,17.70
2016,07,21,00,07,17.70
2016,07,21,00,08,17.70
2016,07,21,00,09,17.70
2016,07,21,00,10,17.70
2016,07,21,00,11,17.60
2016,07,21,00,12,17.60
2016,07,21,00,13,17.60
2016,07,21,00,14,17.60
2016,07,21,00,15,17.50
2016,07,21,00,16,17.50
2016,07,21,00,17,17.50
2016,07,21,00,18,17.40
2016,07,21,00,19,17.40
2016,07,21,00,20,17.40
2016,07,21,00,21,17.30
2016,07,21,00,22,17.30
2016,07,21,00,23,17.30
2016,07,21,00,24,17.30
2016,07,21,00,25,17.20
2016,07,21,00,26,17.20
2016,07,21,00,27,17.20
2016,07,21,00,28,17.20
2016,07,21,00,29,17.10
2016,07,21,00,30,17.10
2016,07,21,00,31,17.10
2016,07,21,00,32,17.00
2016,07,21,00,33,17.00
2016,07,21,00,34,17.00
2016,07,21,00,35,16.90
2016,07,21,00,36,16.90
2016,07,21,00,37,16.90
2016,07,21,00,38,16.90
2016,07,21,00,39,16.80
2016,07,21,00,40,16.80
2016,07,21,00,41,16.80
2016,07,21,00,42,16.80
2016,07,21,00,43,16.80
2016,07,21,00,44,16.80
2016,07,21,00,45,16.80
2016,07,21,00,46,16.80
2016,07,21,00,47,16.80
2016,07,21,00,48,16.80
2016,07,21,00,49,16.70
2016,07,21,00,50,16.70
2016,07,21,00,51,16.70
2016,07,21,00,52,16.70
2016,07,21,00,53,16.70
2016,07,21,00,54,16.60
2016,07,21,00,55,16.60
2016,07,21,00,56,16.60
2016,07,21,00,57,16.60
2016,07,21,00,58,16.60
2016,07,21,00,59,16.60
2016,07,21,01,00,16.50
2016,07,21,01,01,16.50
2016,07,21,01,02,16.50
2016,07,21,01,03,16.50
2016,07,21,01,04,16.40
2016,07,21,01,05,16.40
2016,07,21,01,06,16.40
2016,07,21,01,07,16.40
2016,07,21,01,08,16.40
2016,07,21,01,09,16.40
2016,07,21,01,10,16.40
2016,07,21,01,11,16.40
2016,07,21,01,12,16.40
2016,07,21,01,13,16.40
2016,07,21,01,14,16.40
2016,07,21,01,15,16.40
2016,07,21,01,16,16.30
2016,07,21,01,17,16.30
2016,07,21,01,18,16.30
2016,07,21,01,19,16.30
2016,07,21,01,20,16.30
2016,07,21,01,21,16.30
2016,07,21,01,22,16.30
2016,07,21,01,23,16.30
2016,07,21,01,24,16.30
2016,07,21,01,25,16.30
2016,07,21,01,26,16.20
2016,07,21,01,27,16.20
2016,07,21,01,28,16.20
2016,07,21,01,29,16.20
2016,07,21,01,30,16.20
2016,07,21,01,31,16.20
2016,07,21,01,32,16.20
2016,07,21,01,33,16.20
2016,07,21,01,34,16.20
2016,07,21,01,35,16.20
2016,07,21,01,36,16.10
2016,07,21,01,37,16.10
2016,07,21,01,38,16.10
2016,07,21,01,39,16.10
2016,07,21,01,40,16.10
2016,07,21,01,41,16.10
2016,07,21,01,42,16.10
2016,07,21,01,43,16.10
2016,07,21,01,44,16.00
2016,07,21,01,45,16.00
2016,07,21,01,46,16.00
2016,07,21,01,47,16.00
2016,07,21,01,48,15.90
2016,07,21,01,49,15.90
2016,07,21,01,50,15.90
2016,07,21,01,51,15.90
2016,07,21,01,52,15.90
2016,07,21,01,53,15.90
2016,07,21,01,54,15.90
2016,07,21,01,55,15.80
2016,07,21,01,56,15.80
2016,07,21,01,57,15.80
2016,07,21,01,58,15.80
2016,07,21,01,59,15.80
2016,07,21,02,00,15.80
2016,07,21,02,01,15.70
2016,07,21,02,02,15.70
2016,07,21,02,03,15.70
2016,07,21,02,04,15.70
2016,07,21,02,05,15.70
2016,07,21,02,06,15.70
2016,07,21,02,07,15.60
2016,07,21,02,08,15.60
2016,07,21,02,09,15.60
2016,07,21,02,10,15.60
2016,07,21,02,11,15.60
2016,07,21,02,12,15.60
2016,07,21,02,13,15.60
2016,07,21,02,14,15.60
2016,07,21,02,15,15.60
2016,07,21,02,16,15.60
2016,07,21,02,17,15.60
2016,07,21,02,18,15.60
2016,07,21,02,19,15.60
2016,07,21,02,20,15.60
2016,07,21,02,21,15.60
2016,07,21,02,22,15.60
2016,07,21,02,23,15.60
2016,07,21,02,24,15.60
2016,07,21,02,25,15.50
2016,07,21,02,26,15.60
2016,07,21,02,27,15.50
2016,07,21,02,28,15.50
2016,07,21,02,29,15.50
2016,07,21,02,30,15.50
2016,07,21,02,31,15.50
2016,07,21,02,32,15.50
2016,07,21,02,33,15.50
2016,07,21,02,34,15.50
2016,07,21,02,35,15.50
2016,07,21,02,36,15.40
2016,07,21,02,37,15.40
2016,07,21,02,38,15.40
2016,07,21,02,39,15.40
2016,07,21,02,40,15.40
2016,07,21,02,41,15.40
2016,07,21,02,42,15.30
2016,07,21,02,43,15.30
2016,07,21,02,44,15.30
2016,07,21,02,45,15.30
2016,07,21,02,46,15.30
2016,07,21,02,47,15.30
2016,07,21,02,48,15.30
2016,07,21,02,49,15.30
2016,07,21,02,50,15.30
2016,07,21,02,51,15.30
2016,07,21,02,52,15.30
2016,07,21,02,53,15.20
2016,07,21,02,54,15.20
2016,07,21,02,55,15.20
2016,07,21,02,56,15.20
2016,07,21,02,57,15.20
2016,07,21,02,58,15.20
2016,07,21,02,59,15.20
2016,07,21,03,00,15.20
2016,07,21,03,01,15.10
2016,07,21,03,02,15.10
2016,07,21,03,03,15.10
2016,07,21,03,04,15.10
2016,07,21,03,05,15.00
2016,07,21,03,06,15.00
2016,07,21,03,07,15.00
2016,07,21,03,08,15.00
2016,07,21,03,09,15.00
2016,07,21,03,10,15.00
2016,07,21,03,11,15.00
2016,07,21,03,12,15.00
2016,07,21,03,13,15.00
2016,07,21,03,14,15.00
2016,07,21,03,15,15.00
2016,07,21,03,16,15.00
2016,07,21,03,17,15.00
2016,07,21,03,18,14.90
2016,07,21,03,19,14.90
2016,07,21,03,20,14.90
2016,07,21,03,21,14.90
2016,07,21,03,22,14.90
2016,07,21,03,23,14.90
2016,07,21,03,24,14.80
2016,07,21,03,25,14.80
2016,07,21,03,26,14.80
2016,07,21,03,27,14.80
2016,07,21,03,28,14.80
2016,07,21,03,29,14.80
2016,07,21,03,30,14.80
2016,07,21,03,31,14.80
2016,07,21,03,32,14.80
2016,07,21,03,33,14.80
2016,07,21,03,34,14.80
2016,07,21,03,35,14.80
2016,07,21,03,36,14.80
2016,07,21,03,37,14.80
2016,07,21,03,38,14.80
2016,07,21,03,39,14.80
2016,07,21,03,40,14.80
2016,07,21,03,41,14.80
2016,07,21,03,42,14.70
2016,07,21,03,43,14.70
2016,07,21,03,44,14.70
2016,07,21,03,45,14.70
2016,07,21,03,46,14.70
2016,07,21,03,47,14.70
2016,07,21,03,48,14.70
2016,07,21,03,49,14.70
2016,07,21,03,50,14.60
2016,07,21,03,51,14.60
2016,07,21,03,52,14.60
2016,07,21,03,53,14.60
2016,07,21,03,54,14.60
2016,07,21,03,55,14.60
2016,07,21,03,56,14.50
2016,07,21,03,57,14.50
2016,07,21,03,58,14.50
2016,07,21,03,59,14.40
2016,07,21,04,00,14.40
2016,07,21,04,01,14.40
2016,07,21,04,02,14.40
2016,07,21,04,03,14.40
2016,07,21,04,04,14.40
2016,07,21,04,05,14.40
2016,07,21,04,06,14.40
2016,07,21,04,07,14.40
2016,07,21,04,08,14.40
2016,07,21,04,09,14.40
2016,07,21,04,10,14.40
2016,07,21,04,11,14.40
2016,07,21,04,12,14.40
2016,07,21,04,13,14.30
2016,07,21,04,14,14.30
2016,07,21,04,15,14.30
2016,07,21,04,16,14.30
2016,07,21,04,17,14.30
2016,07,21,04,18,14.30
2016,07,21,04,19,14.30
2016,07,21,04,20,14.30
2016,07,21,04,21,14.30
2016,07,21,04,22,14.30
2016,07,21,04,23,14.30
2016,07,21,04,24,14.30
2016,07,21,04,25,14.30
2016,07,21,04,26,14.30
2016,07,21,04,27,14.30
2016,07,21,04,28,14.30
2016,07,21,04,29,14.30
2016,07,21,04,30,14.30
2016,07,21,04,31,14.30
2016,07,21,04,32,14.30
2016,07,21,04,33,14.30
2016,07,21,04,34,14.30
2016,07,21,04,35,14.30
2016,07,21,04,36,14.30
2016,07,21,04,37,14.30
2016,07,21,04,38,14.30
2016,07,21,04,39,14.30
2016,07,21,04,40,14.20
2016,07,21,04,41,14.20
2016,07,21,04,42,14.20
2016,07,21,04,43,14.20
2016,07,21,04,44,14.20
2016,07,21,04,45,14.20
2016,07,21,04,46,14.20
2016,07,21,04,47,14.20
2016,07,21,04,48,14.20
2016,07,21,04,49,14.20
2016,07,21,04,50,14.20
2016,07,21,04,51,14.20
2016,07,21,04,52,14.20
2016,07,21,04,53,14.20
2016,07,21,04,54,14.20
2016,07,21,04,55,14.10
2016,07,21,04,56,14.10
2016,07,21,04,57,14.10
2016,07,21,04,58,14.10
2016,07,21,04,59,14.10
2016,07,21,05,00,14.10
2016,07,21,05,01,14.10
2016,07,21,05,02,14.10
2016,07,21,05,03,14.10
2016,07,21,05,04,14.10
2016,07,21,05,05,14.10
2016,07,21,05,06,14.10
2016,07,21,05,07,14.00
2016,07,21,05,08,14.00
2016,07,21,05,09,14.00
2016,07,21,05,10,14.00
2016,07,21,05,11,14.00
2016,07,21,05,12,13.90
2016,07,21,05,13,13.90
2016,07,21,05,14,13.90
2016,07,21,05,15,13.90
2016,07,21,05,16,13.90
2016,07,21,05,17,13.90
2016,07,21,05,18,13.90
2016,07,21,05,19,13.90
2016,07,21,05,20,13.90
2016,07,21,05,21,13.80
2016,07,21,05,22,13.80
2016,07,21,05,23,13.80
2016,07,21,05,24,13.80
2016,07,21,05,25,13.80
2016,07,21,05,26,13.80
2016,07,21,05,27,13.80
2016,07,21,05,28,13.80
2016,07,21,05,29,13.80
2016,07,21,05,30,13.80
2016,07,21,05,31,13.80
2016,07,21,05,32,13.80
2016,07,21,05,33,13.80
2016,07,21,05,34,13.70
2016,07,21,05,35,13.70
2016,07,21,05,36,13.70
2016,07,21,05,37,13.70
2016,07,21,05,38,13.70
2016,07,21,05,39,13.70
2016,07,21,05,40,13.70
2016,07,21,05,41,13.70
2016,07,21,05,42,13.70
2016,07,21,05,43,13.70
2016,07,21,05,44,13.70
2016,07,21,05,45,13.70
2016,07,21,05,46,13.70
2016,07,21,05,47,13.70
2016,07,21,05,48,13.70
2016,07,21,05,49,13.70
2016,07,21,05,50,13.70
2016,07,21,05,51,13.70
2016,07,21,05,52,13.70
2016,07,21,05,53,13.70
2016,07,21,05,54,13.70
2016,07,21,05,55,13.60
2016,07,21,05,56,13.60
2016,07,21,05,57,13.60
2016,07,21,05,58,13.60
2016,07,21,05,59,13.60
2016,07,21,06,00,13.60
2016,07,21,06,01,13.60
2016,07,21,06,02,13.60
2016,07,21,06,03,13.60
2016,07,21,06,04,13.60
2016,07,21,06,05,13.60
2016,07,21,06,06,13.60
2016,07,21,06,07,13.60
2016,07,21,06,08,13.60
2016,07,21,06,09,13.70
2016,07,21,06,10,13.70
2016,07,21,06,11,13.70
2016,07,21,06,12,13.70
2016,07,21,06,13,13.70
2016,07,21,06,14,13.70
2016,07,21,06,15,13.70
2016,07,21,06,16,13.70
2016,07,21,06,17,13.80
2016,07,21,06,18,13.80
2016,07,21,06,19,13.80
2016,07,21,06,20,13.80
2016,07,21,06,21,13.80
2016,07,21,06,22,13.80
2016,07,21,06,23,13.80
2016,07,21,06,24,13.90
2016,07,21,06,25,13.90
2016,07,21,06,26,13.90
2016,07,21,06,27,13.90
2016,07,21,06,28,13.90
2016,07,21,06,29,13.90
2016,07,21,06,30,13.90
2016,07,21,06,31,13.90
2016,07,21,06,32,13.90
2016,07,21,06,33,14.00
2016,07,21,06,34,14.00
2016,07,21,06,35,14.00
2016,07,21,06,36,14.10
2016,07,21,06,37,14.10
2016,07,21,06,38,14.10
2016,07,21,06,39,14.10
2016,07,21,06,40,14.10
2016,07,21,06,41,14.20
2016,07,21,06,42,14.20
2016,07,21,06,43,14.20
2016,07,21,06,44,14.20
2016,07,21,06,45,14.20
2016,07,21,06,46,14.30
2016,07,21,06,47,14.30
2016,07,21,06,48,14.30
2016,07,21,06,49,14.30
2016,07,21,06,50,14.40
2016,07,21,06,51,14.40
2016,07,21,06,52,14.50
2016,07,21,06,53,14.50
2016,07,21,06,54,14.50
2016,07,21,06,55,14.60
2016,07,21,06,56,14.60
2016,07,21,06,57,14.60
2016,07,21,06,58,14.70
2016,07,21,06,59,14.70
2016,07,21,07,00,14.70
2016,07,21,07,01,14.80
2016,07,21,07,02,14.80
2016,07,21,07,03,14.80
2016,07,21,07,04,14.90
2016,07,21,07,05,14.90
2016,07,21,07,06,15.00
2016,07,21,07,07,15.00
2016,07,21,07,08,15.00
2016,07,21,07,09,15.00
2016,07,21,07,10,15.00
2016,07,21,07,11,15.00
2016,07,21,07,12,15.10
2016,07,21,07,13,15.10
2016,07,21,07,14,15.20
2016,07,21,07,15,15.20
2016,07,21,07,16,15.20
2016,07,21,07,17,15.30
2016,07,21,07,18,15.30
2016,07,21,07,19,15.30
2016,07,21,07,20,15.30
2016,07,21,07,21,15.40
2016,07,21,07,22,15.40
2016,07,21,07,23,15.40
2016,07,21,07,24,15.50
2016,07,21,07,25,15.50
2016,07,21,07,26,15.60
2016,07,21,07,27,15.60
2016,07,21,07,28,15.70
2016,07,21,07,29,15.70
2016,07,21,07,30,15.80
2016,07,21,07,31,15.80
2016,07,21,07,32,15.90
2016,07,21,07,33,15.90
2016,07,21,07,34,16.00
2016,07,21,07,35,16.10
2016,07,21,07,36,16.20
2016,07,21,07,37,16.20
2016,07,21,07,38,16.30
2016,07,21,07,39,16.30
2016,07,21,07,40,16.40
2016,07,21,07,41,16.50
2016,07,21,07,42,16.60
2016,07,21,07,43,16.70
2016,07,21,07,44,16.80
2016,07,21,07,45,16.80
2016,07,21,07,46,16.90
2016,07,21,07,47,17.00
2016,07,21,07,48,17.10
2016,07,21,07,49,17.20
2016,07,21,07,50,17.20
2016,07,21,07,51,17.30
2016,07,21,07,52,17.40
2016,07,21,07,53,17.40
2016,07,21,07,54,17.50
2016,07,21,07,55,17.60
2016,07,21,07,56,17.70
2016,07,21,07,57,17.70
2016,07,21,07,58,17.80
2016,07,21,07,59,17.90
2016,07,21,08,00,18.00
2016,07,21,08,01,18.10
2016,07,21,08,02,18.20
2016,07,21,08,03,18.30
2016,07,21,08,04,18.40
2016,07,21,08,05,18.50
2016,07,21,08,06,18.60
2016,07,21,08,07,18.60
2016,07,21,08,08,18.70
2016,07,21,08,09,18.80
2016,07,21,08,10,18.80
2016,07,21,08,11,18.90
2016,07,21,08,12,18.90
2016,07,21,08,13,19.00
2016,07,21,08,14,19.10
2016,07,21,08,15,19.10
2016,07,21,08,16,19.10
2016,07,21,08,17,19.10
2016,07,21,08,18,19.20
2016,07,21,08,19,19.20
2016,07,21,08,20,19.20
2016,07,21,08,21,19.20
2016,07,21,08,22,19.20
2016,07,21,08,23,19.20
2016,07,21,08,24,19.30
2016,07,21,08,25,19.30
2016,07,21,08,26,19.30
2016,07,21,08,27,19.30
2016,07,21,08,28,19.40
2016,07,21,08,29,19.40
2016,07,21,08,30,19.40
2016,07,21,08,31,19.40
2016,07,21,08,32,19.40
2016,07,21,08,33,19.40
2016,07,21,08,34,19.50
2016,07,21,08,35,19.50
2016,07,21,08,36,19.60
2016,07,21,08,37,19.70
2016,07,21,08,38,19.70
2016,07,21,08,39,19.70
2016,07,21,08,40,19.70
2016,07,21,08,41,19.70
2016,07,21,08,42,19.70
2016,07,21,08,43,19.70
2016,07,21,08,44,19.70
2016,07,21,08,45,19.70
2016,07,21,08,46,19.70
2016,07,21,08,47,19.70
2016,07,21,08,48,19.80
2016,07,21,08,49,19.90
2016,07,21,08,50,19.90
2016,07,21,08,51,19.90
2016,07,21,08,52,20.00
2016,07,21,08,53,20.10
2016,07,21,08,54,20.10
2016,07,21,08,55,20.10
2016,07,21,08,56,20.20
2016,07,21,08,57,20.20
2016,07,21,08,58,20.20
2016,07,21,08,59,20.10
2016,07,21,09,00,20.20
2016,07,21,09,01,20.20
2016,07,21,09,02,20.20
2016,07,21,09,03,20.20
2016,07,21,09,04,20.20
2016,07,21,09,05,20.20
2016,07,21,09,06,20.10
2016,07,21,09,07,20.10
2016,07,21,09,08,20.10
2016,07,21,09,09,20.10
2016,07,21,09,10,20.10
2016,07,21,09,11,20.10
2016,07,21,09,12,20.10
2016,07,21,09,13,20.10
2016,07,21,09,14,20.10
2016,07,21,09,15,20.10
2016,07,21,09,16,20.10
2016,07,21,09,17,20.20
2016,07,21,09,18,20.20
2016,07,21,09,19,20.20
2016,07,21,09,20,20.20
2016,07,21,09,21,20.30
2016,07,21,09,22,20.30
2016,07,21,09,23,20.40
2016,07,21,09,24,20.50
2016,07,21,09,25,20.50
2016,07,21,09,26,20.50
2016,07,21,09,27,20.50
2016,07,21,09,28,20.60
2016,07,21,09,29,20.60
2016,07,21,09,30,20.60
2016,07,21,09,31,20.50
2016,07,21,09,32,20.40
2016,07,21,09,33,20.40
2016,07,21,09,34,20.30
2016,07,21,09,35,20.30
2016,07,21,09,36,20.30
2016,07,21,09,37,20.30
2016,07,21,09,38,20.30
2016,07,21,09,39,20.30
2016,07,21,09,40,20.30
2016,07,21,09,41,20.30
2016,07,21,09,42,20.40
2016,07,21,09,43,20.40
2016,07,21,09,44,20.40
2016,07,21,09,45,20.50
2016,07,21,09,46,20.50
2016,07,21,09,47,20.60
2016,07,21,09,48,20.70
2016,07,21,09,49,20.70
2016,07,21,09,50,20.80
2016,07,21,09,51,20.80
2016,07,21,09,52,20.90
2016,07,21,09,53,21.00
2016,07,21,09,54,21.10
2016,07,21,09,55,21.10
2016,07,21,09,56,21.20
2016,07,21,09,57,21.20
2016,07,21,09,58,21.20
2016,07,21,09,59,21.30
2016,07,21,10,00,21.30
2016,07,21,10,01,21.40
2016,07,21,10,02,21.40
2016,07,21,10,03,21.40
2016,07,21,10,04,21.50
2016,07,21,10,05,21.50
2016,07,21,10,06,21.60
2016,07,21,10,07,21.50
2016,07,21,10,08,21.50
2016,07,21,10,09,21.40
2016,07,21,10,10,21.30
2016,07,21,10,11,21.30
2016,07,21,10,12,21.40
2016,07,21,10,13,21.40
2016,07,21,10,14,21.40
2016,07,21,10,15,21.50
2016,07,21,10,16,21.60
2016,07,21,10,17,21.60
2016,07,21,10,18,21.60
2016,07,21,10,19,21.70
2016,07,21,10,20,21.80
2016,07,21,10,21,21.80
2016,07,21,10,22,21.90
2016,07,21,10,23,21.90
2016,07,21,10,24,21.90
2016,07,21,10,25,21.80
2016,07,21,10,26,21.70
2016,07,21,10,27,21.70
2016,07,21,10,28,21.70
2016,07,21,10,29,21.60
2016,07,21,10,30,21.60
2016,07,21,10,31,21.60
2016,07,21,10,32,21.60
2016,07,21,10,33,21.50
2016,07,21,10,34,21.60
2016,07,21,10,35,21.60
2016,07,21,10,36,21.50
2016,07,21,10,37,21.40
2016,07,21,10,38,21.40
2016,07,21,10,39,21.50
2016,07,21,10,40,21.50
2016,07,21,10,41,21.50
2016,07,21,10,42,21.50
2016,07,21,10,43,21.60
2016,07,21,10,44,21.60
2016,07,21,10,45,21.70
2016,07,21,10,46,21.70
2016,07,21,10,47,21.70
2016,07,21,10,48,21.80
2016,07,21,10,49,21.80
2016,07,21,10,50,21.90
2016,07,21,10,51,21.90
2016,07,21,10,52,21.80
2016,07,21,10,53,21.80
2016,07,21,10,54,21.80
2016,07,21,10,55,21.80
2016,07,21,10,56,21.70
2016,07,21,10,57,21.70
2016,07,21,10,58,21.60
2016,07,21,10,59,21.60
2016,07,21,11,00,21.60
2016,07,21,11,01,21.50
2016,07,21,11,02,21.40
2016,07,21,11,03,21.30
2016,07,21,11,04,21.30
2016,07,21,11,05,21.40
2016,07,21,11,06,21.50
2016,07,21,11,07,21.60
2016,07,21,11,08,21.70
2016,07,21,11,09,21.80
2016,07,21,11,10,21.90
2016,07,21,11,11,22.00
2016,07,21,11,12,22.00
2016,07,21,11,13,22.00
2016,07,21,11,14,22.00
2016,07,21,11,15,21.90
2016,07,21,11,16,21.90
2016,07,21,11,17,21.90
2016,07,21,11,18,21.80
2016,07,21,11,19,21.80
2016,07,21,11,20,21.80
2016,07,21,11,21,21.80
2016,07,21,11,22,21.90
2016,07,21,11,23,22.00
2016,07,21,11,24,22.00
2016,07,21,11,25,22.10
2016,07,21,11,26,22.10
2016,07,21,11,27,22.10
2016,07,21,11,28,22.20
2016,07,21,11,29,22.20
2016,07,21,11,30,22.20
2016,07,21,11,31,22.20
2016,07,21,11,32,22.30
2016,07,21,11,33,22.30
2016,07,21,11,34,22.30
2016,07,21,11,35,22.30
2016,07,21,11,36,22.20
2016,07,21,11,37,22.20
2016,07,21,11,38,22.10
2016,07,21,11,39,22.00
2016,07,21,11,40,22.00
2016,07,21,11,41,22.00
2016,07,21,11,42,22.00
2016,07,21,11,43,22.00
2016,07,21,11,44,22.00
2016,07,21,11,45,22.10
2016,07,21,11,46,22.10
2016,07,21,11,47,22.10
2016,07,21,11,48,22.10
2016,07,21,11,49,22.10
2016,07,21,11,50,22.20
2016,07,21,11,51,22.20
2016,07,21,11,52,22.20
2016,07,21,11,53,22.10
2016,07,21,11,54,22.10
2016,07,21,11,55,22.10
2016,07,21,11,56,22.10
2016,07,21,11,57,22.20
2016,07,21,11,58,22.20
2016,07,21,11,59,22.30
2016,07,21,12,00,22.40
2016,07,21,12,01,22.50
2016,07,21,12,02,22.50
2016,07,21,12,03,22.60
2016,07,21,12,04,22.70
2016,07,21,12,05,22.70
2016,07,21,12,06,22.70
2016,07,21,12,07,22.70
2016,07,21,12,08,22.70
2016,07,21,12,09,22.70
2016,07,21,12,10,22.60
2016,07,21,12,11,22.60
2016,07,21,12,12,22.50
2016,07,21,12,13,22.40
2016,07,21,12,14,22.30
2016,07,21,12,15,22.30
2016,07,21,12,16,22.20
2016,07,21,12,17,22.20
2016,07,21,12,18,22.10
2016,07,21,12,19,22.00
2016,07,21,12,20,22.00
2016,07,21,12,21,22.00
2016,07,21,12,22,22.10
2016,07,21,12,23,22.10
2016,07,21,12,24,22.10
2016,07,21,12,25,22.10
2016,07,21,12,26,22.00
2016,07,21,12,27,22.00
2016,07,21,12,28,21.90
2016,07,21,12,29,21.90
2016,07,21,12,30,21.90
2016,07,21,12,31,21.90
2016,07,21,12,32,21.90
2016,07,21,12,33,21.90
2016,07,21,12,34,21.90
2016,07,21,12,35,21.80
2016,07,21,12,36,21.80
2016,07,21,12,37,21.80
2016,07,21,12,38,21.90
2016,07,21,12,39,21.90
2016,07,21,12,40,21.90
2016,07,21,12,41,22.00
2016,07,21,12,42,22.10
2016,07,21,12,43,22.10
2016,07,21,12,44,22.20
2016,07,21,12,45,22.20
2016,07,21,12,46,22.30
2016,07,21,12,47,22.30
2016,07,21,12,48,22.30
2016,07,21,12,49,22.40
2016,07,21,12,50,22.40
2016,07,21,12,51,22.40
2016,07,21,12,52,22.40
2016,07,21,12,53,22.40
2016,07,21,12,54,22.40
2016,07,21,12,55,22.40
2016,07,21,12,56,22.50
2016,07,21,12,57,22.50
2016,07,21,12,58,22.60
2016,07,21,12,59,22.70
2016,07,21,13,00,22.60
2016,07,21,13,01,22.60
2016,07,21,13,02,22.70
2016,07,21,13,03,22.70
2016,07,21,13,04,22.70
2016,07,21,13,05,22.70
2016,07,21,13,06,22.80
2016,07,21,13,07,22.90
2016,07,21,13,08,23.00
2016,07,21,13,09,23.00
2016,07,21,13,10,23.10
2016,07,21,13,11,23.20
2016,07,21,13,12,23.20
2016,07,21,13,13,23.10
2016,07,21,13,14,23.10
2016,07,21,13,15,23.10
2016,07,21,13,16,23.20
2016,07,21,13,17,23.20
2016,07,21,13,18,23.20
2016,07,21,13,19,23.10
2016,07,21,13,20,22.90
2016,07,21,13,21,22.80
2016,07,21,13,22,22.70
2016,07,21,13,23,22.70
2016,07,21,13,24,22.60
2016,07,21,13,25,22.60
2016,07,21,13,26,22.60
2016,07,21,13,27,22.70
2016,07,21,13,28,22.80
2016,07,21,13,29,22.90
2016,07,21,13,30,23.00
2016,07,21,13,31,23.10
2016,07,21,13,32,23.10
2016,07,21,13,33,23.20
2016,07,21,13,34,23.20
2016,07,21,13,35,23.20
2016,07,21,13,36,23.10
2016,07,21,13,37,23.00
2016,07,21,13,38,22.90
2016,07,21,13,39,22.90
2016,07,21,13,40,22.90
2016,07,21,13,41,22.80
2016,07,21,13,42,22.80
2016,07,21,13,43,22.80
2016,07,21,13,44,22.80
2016,07,21,13,45,22.90
2016,07,21,13,46,23.00
2016,07,21,13,47,22.90
2016,07,21,13,48,23.00
2016,07,21,13,49,23.00
2016,07,21,13,50,23.10
2016,07,21,13,51,23.20
2016,07,21,13,52,23.20
2016,07,21,13,53,23.20
2016,07,21,13,54,23.20
2016,07,21,13,55,23.10
2016,07,21,13,56,23.10
2016,07,21,13,57,23.00
2016,07,21,13,58,23.00
2016,07,21,13,59,23.00
2016,07,21,14,00,23.10
2016,07,21,14,01,23.00
2016,07,21,14,02,23.00
2016,07,21,14,03,22.90
2016,07,21,14,04,22.90
2016,07,21,14,05,22.90
2016,07,21,14,06,22.90
2016,07,21,14,07,23.00
2016,07,21,14,08,23.00
2016,07,21,14,09,23.10
2016,07,21,14,10,23.10
2016,07,21,14,11,23.30
2016,07,21,14,12,23.40
2016,07,21,14,13,23.50
2016,07,21,14,14,23.70
2016,07,21,14,15,23.80
2016,07,21,14,16,23.90
2016,07,21,14,17,24.00
2016,07,21,14,18,24.10
2016,07,21,14,19,24.20
2016,07,21,14,20,24.30
2016,07,21,14,21,24.40
2016,07,21,14,22,24.40
2016,07,21,14,23,24.40
2016,07,21,14,24,24.30
2016,07,21,14,25,24.30
2016,07,21,14,26,24.30
2016,07,21,14,27,24.40
2016,07,21,14,28,24.40
2016,07,21,14,29,24.40
2016,07,21,14,30,24.50
2016,07,21,14,31,24.50
2016,07,21,14,32,24.60
2016,07,21,14,33,24.50
2016,07,21,14,34,24.40
2016,07,21,14,35,24.30
2016,07,21,14,36,24.20
2016,07,21,14,37,24.00
2016,07,21,14,38,23.80
2016,07,21,14,39,23.80
2016,07,21,14,40,23.80
2016,07,21,14,41,23.80
2016,07,21,14,42,23.80
2016,07,21,14,43,23.80
2016,07,21,14,44,23.80
2016,07,21,14,45,23.80
2016,07,21,14,46,23.80
2016,07,21,14,47,23.90
2016,07,21,14,48,24.00
2016,07,21,14,49,24.10
2016,07,21,14,50,24.10
2016,07,21,14,51,24.20
2016,07,21,14,52,24.20
2016,07,21,14,53,24.20
2016,07,21,14,54,24.30
2016,07,21,14,55,24.30
2016,07,21,14,56,24.30
2016,07,21,14,57,24.30
2016,07,21,14,58,24.30
2016,07,21,14,59,24.40
2016,07,21,15,00,24.40
2016,07,21,15,01,24.50
2016,07,21,15,02,24.40
2016,07,21,15,03,24.40
2016,07,21,15,04,24.40
2016,07,21,15,05,24.40
2016,07,21,15,06,24.40
2016,07,21,15,07,24.40
2016,07,21,15,08,24.50
2016,07,21,15,09,24.50
2016,07,21,15,10,24.50
2016,07,21,15,11,24.50
2016,07,21,15,12,24.60
2016,07,21,15,13,24.50
2016,07,21,15,14,24.50
2016,07,21,15,15,24.50
2016,07,21,15,16,24.50
2016,07,21,15,17,24.60
2016,07,21,15,18,24.60
2016,07,21,15,19,24.70
2016,07,21,15,20,24.70
2016,07,21,15,21,24.70
2016,07,21,15,22,24.70
2016,07,21,15,23,24.70
2016,07,21,15,24,24.70
2016,07,21,15,25,24.70
2016,07,21,15,26,24.70
2016,07,21,15,27,24.70
2016,07,21,15,28,24.70
2016,07,21,15,29,24.70
2016,07,21,15,30,24.70
2016,07,21,15,31,24.80
2016,07,21,15,32,24.70
2016,07,21,15,33,24.70
2016,07,21,15,34,24.80
2016,07,21,15,35,24.70
2016,07,21,15,36,24.70
2016,07,21,15,37,24.70
2016,07,21,15,38,24.80
2016,07,21,15,39,24.80
2016,07,21,15,40,24.80
2016,07,21,15,41,24.80
2016,07,21,15,42,24.80
2016,07,21,15,43,24.80
2016,07,21,15,44,24.80
2016,07,21,15,45,24.70
2016,07,21,15,46,24.70
2016,07,21,15,47,24.80
2016,07,21,15,48,24.80
2016,07,21,15,49,24.80
2016,07,21,15,50,24.90
2016,07,21,15,51,24.90
2016,07,21,15,52,24.90
2016,07,21,15,53,24.90
2016,07,21,15,54,24.90
2016,07,21,15,55,24.90
2016,07,21,15,56,25.00
2016,07,21,15,57,25.00
2016,07,21,15,58,25.10
2016,07,21,15,59,25.20
2016,07,21,16,00,25.30
2016,07,21,16,01,25.40
2016,07,21,16,02,25.50
2016,07,21,16,03,25.60
2016,07,21,16,04,25.60
2016,07,21,16,05,25.60
2016,07,21,16,06,25.60
2016,07,21,16,07,25.60
2016,07,21,16,08,25.60
2016,07,21,16,09,25.60
2016,07,21,16,10,25.60
2016,07,21,16,11,25.60
2016,07,21,16,12,25.60
2016,07,21,16,13,25.60
2016,07,21,16,14,25.60
2016,07,21,16,15,25.60
2016,07,21,16,16,25.70
2016,07,21,16,17,25.70
2016,07,21,16,18,25.70
2016,07,21,16,19,25.70
2016,07,21,16,20,25.70
2016,07,21,16,21,25.60
2016,07,21,16,22,25.60
2016,07,21,16,23,25.60
2016,07,21,16,24,25.60
2016,07,21,16,25,25.60
2016,07,21,16,26,25.70
2016,07,21,16,27,25.70
2016,07,21,16,28,25.70
2016,07,21,16,29,25.60
2016,07,21,16,30,25.60
2016,07,21,16,31,25.60
2016,07,21,16,32,25.60
2016,07,21,16,33,25.60
2016,07,21,16,34,25.60
2016,07,21,16,35,25.70
2016,07,21,16,36,25.70
2016,07,21,16,37,25.70
2016,07,21,16,38,25.70
2016,07,21,16,39,25.70
2016,07,21,16,40,25.80
2016,07,21,16,41,25.80
2016,07,21,16,42,25.90
2016,07,21,16,43,25.90
2016,07,21,16,44,26.00
2016,07,21,16,45,26.10
2016,07,21,16,46,26.10
2016,07,21,16,47,26.10
2016,07,21,16,48,26.10
2016,07,21,16,49,26.00
2016,07,21,16,50,26.00
2016,07,21,16,51,25.90
2016,07,21,16,52,26.00
2016,07,21,16,53,26.00
2016,07,21,16,54,26.10
2016,07,21,16,55,26.20
2016,07,21,16,56,26.30
2016,07,21,16,57,26.30
2016,07,21,16,58,26.30
2016,07,21,16,59,26.30
2016,07,21,17,00,26.40
2016,07,21,17,01,26.40
2016,07,21,17,02,26.50
2016,07,21,17,03,26.60
2016,07,21,17,04,26.70
2016,07,21,17,05,26.80
2016,07,21,17,06,26.80
2016,07,21,17,07,26.80
2016,07,21,17,08,26.90
2016,07,21,17,09,26.90
2016,07,21,17,10,26.80
2016,07,21,17,11,26.80
2016,07,21,17,12,26.80
2016,07,21,17,13,26.80
2016,07,21,17,14,26.80
2016,07,21,17,15,26.80
2016,07,21,17,16,26.80
2016,07,21,17,17,26.80
2016,07,21,17,18,26.80
2016,07,21,17,19,26.80